Hourly Weather Roundup
Issued by NWS

Current Version | Previous Version | Text Only | Print | Product List | Glossary On
Versions: 1 2 3 4 5 6 7 8 9 10 11 12 13 14 15 16 17 18 19 20 21 22 23 24 25 26 27 28 29 30 31 32 33 34 35 36 37 38 39 40 41 42 43 44 45 46 47 48 49 50
000
NZUS43 KILX 100010
HWRCRS

NWR HOURLY WEATHER ROUNDUP
NATIONAL WEATHER SERVICE, LINCOLN IL
600 PM CST FRI DEC 09 2016


CITY           SKY/WX    TMP DP  RH WIND       PRES   REMARKS
CHAMPAIGN      CLOUDY    24  14  65 W10       30.56S WCI  14
LAWRENCEVILLE  CLOUDY    26  17  68 N5        30.59R WCI  20
PEORIA         CLOUDY    23  12  62 NW6       30.57S WCI  16
SPRINGFIELD    CLOUDY    25  16  68 CALM      30.58S
$$


CITY           SKY/WX    TMP DP  RH WIND       PRES   REMARKS
BLOOMINGTON    FLURRIES  22  15  75 SW9       30.55S WCI  12
DANVILLE       FLURRIES  24  17  74 W10       30.53S WCI  13
DECATUR        CLOUDY    23  13  65 W5        30.57S WCI  17
EFFINGHAM      CLOUDY    25  19  77 W6        30.59S WCI  18
FLORA          PTCLDY    27  16  62 W5        30.59S WCI  22
GALESBURG      CLOUDY    21  14  73 W3        30.55F
JACKSONVILLE   CLOUDY    23  15  72 CALM      30.57F
LACON          CLOUDY    23  16  73 W3        30.55S
LINCOLN        CLOUDY    24  14  66 W3        30.58R
LITCHFIELD     CLEAR     20  15  81 NW3       30.57S

CITY           SKY/WX    TMP DP  RH WIND       PRES   REMARKS
MACOMB         CLEAR     18  13  83 NW5       30.58F WCI  11
MATTOON        CLOUDY    23  15  71 NW7       30.55F WCI  15
MOLINE         CLEAR     20  11  68 NW6       30.55F WCI  12
OLNEY          CLOUDY    27  18  69 NW6       30.58S WCI  20
PARIS          CLOUDY    24  18  78 W9        30.57F WCI  14
PONTIAC        CLOUDY    25  18  73 W9        30.56S WCI  16
QUINCY         CLOUDY    22  14  71 NW3       30.55F
RANTOUL        FLURRIES  26  17  69 W8        30.55S WCI  17
ROBINSON       CLOUDY    24  17  73 NW3       30.59S
TAYLORVILLE    CLOUDY    23  15  71 CALM      30.57F
TERRE HAUTE    CLOUDY    25  16  68 W7        30.57S WCI  17
$$


CITY           SKY/WX    TMP DP  RH WIND       PRES   REMARKS
BURLINGTON     PTCLDY    20  14  77 W3        30.55F
CHICAGO        MOCLDY    21  12  68 W10       30.51R WCI  10
DES MOINES     CLOUDY    23  10  57 SW3       30.54R
EVANSVILLE     CLEAR     26  14  60 NW3       30.58F
INDIANAPOLIS   FLURRIES  25  15  66 W13       30.53R WCI  14
KANSAS CITY    CLOUDY    27  10  49 S6        30.52S WCI  20
MILWAUKEE      MOCLDY    23   9  55 W7        30.48S WCI  15
ST LOUIS       PTCLDY    26  12  55 CALM      30.57F
$$





USA.gov is the U.S. government's official web portal to all federal, state and local government web resources and services.